Theta_e
325 326 327 328 328 329 329 329 330 330 330 330 329 329 330 330 329 329 329 330 329 328 326 325 324 324 326 328 330 329 329 329 329 329 329 328 328 328 328 328 328 329 329 328 327 327 327 327 328 327 326 326 326 326 325 326 326 327 326 326 326 325 324 324 323 323 321 316 312 310 309 309 308 307 307 308 308 307 307 307 307 307 307 307 307
325 325 325 326 327 328 329 329 330 330 329 330 329 329 330 330 329 329 329 329 328 327 326 325 322 321 324 327 328 328 328 328 329 328 328 328 328 328 328 328 329 329 329 328 328 328 327 327 328 328 327 326 326 326 326 325 326 326 326 325 325 325 325 325 324 323 322 319 314 311 310 309 309 308 307 307 308 308 307 307 307 307 307 308 308
324 325 325 325 326 328 329 329 329 329 329 329 329 329 329 329 329 328 329 329 328 327 327 326 324 322 322 323 324 326 327 328 328 328 327 327 328 328 328 329 329 329 328 328 328 328 327 327 328 328 327 327 327 326 326 326 326 326 326 325 325 325 325 325 324 324 323 321 318 314 311 310 310 309 308 308 308 309 309 308 308 308 308 308 308
320 323 324 325 326 327 328 328 329 328 328 329 329 328 328 327 327 327 328 329 328 327 327 326 326 325 323 322 322 324 327 328 328 328 328 327 328 328 328 328 329 329 328 328 328 328 328 328 328 328 328 327 327 327 326 326 326 326 325 325 325 325 325 325 325 324 323 322 321 317 313 311 311 310 309 309 309 309 310 310 309 309 308 308 309
317 318 320 323 325 326 327 327 327 327 327 328 328 328 327 326 326 327 327 328 328 327 327 325 325 325 324 323 323 324 325 328 328 328 329 328 328 328 327 328 328 328 327 328 328 328 328 328 328 327 327 327 328 327 327 326 326 325 325 325 325 325 325 325 325 324 323 323 322 320 316 313 312 311 310 309 309 309 310 310 310 310 309 309 309
315 315 316 318 321 324 326 326 326 326 325 325 326 327 327 326 326 326 327 327 327 327 327 326 325 325 324 323 323 324 325 326 328 329 328 328 328 328 328 328 329 328 328 328 328 328 328 328 327 327 327 327 327 327 327 327 326 326 325 325 325 325 324 325 325 324 324 323 321 319 318 317 318 317 313 311 310 309 310 310 311 311 311 311 311
314 314 314 315 317 320 323 325 326 326 325 325 326 327 327 327 326 326 326 327 327 327 327 326 325 325 325 323 322 324 324 324 326 328 327 325 325 326 327 328 328 328 328 328 328 327 327 327 327 327 327 326 327 326 326 325 325 325 325 325 324 324 325 325 325 325 324 323 320 319 320 321 322 320 317 313 311 310 310 310 310 311 312 312 312
313 313 314 314 315 316 318 321 324 326 326 326 327 327 328 328 328 327 327 326 327 326 326 325 324 324 326 325 323 323 324 324 325 326 324 324 324 325 326 327 327 327 327 327 327 327 327 327 327 327 327 327 326 326 325 325 324 324 325 324 324 324 325 325 325 325 325 323 321 320 321 322 321 319 316 314 312 311 310 310 311 311 312 313 313
312 312 313 313 314 314 315 316 320 324 326 327 327 328 328 328 328 328 327 327 326 325 325 326 324 323 325 325 324 323 323 324 325 324 323 323 323 324 324 325 326 326 326 326 326 326 326 326 326 327 326 326 326 326 326 325 325 325 324 324 324 325 325 325 325 325 325 324 323 321 322 322 320 317 315 313 312 311 311 311 311 312 312 313 313
311 312 312 312 313 313 314 314 317 320 324 327 327 327 328 329 329 328 327 327 325 323 324 326 325 323 324 323 323 322 322 323 324 323 321 321 321 321 321 322 324 326 326 326 326 326 326 326 326 326 326 326 326 326 326 324 324 324 324 324 324 325 325 325 324 324 324 324 323 322 322 321 318 315 314 314 313 312 311 311 312 312 312 312 313
311 311 311 311 312 312 313 314 315 318 321 324 326 327 327 328 329 328 327 326 325 323 324 325 324 323 323 322 322 323 323 322 322 321 321 321 321 320 320 322 324 325 326 326 326 326 326 326 327 326 326 326 326 326 326 324 323 323 324 324 324 325 325 324 323 322 323 323 323 322 322 319 316 314 314 314 313 312 312 312 312 313 312 313 314
310 310 310 310 311 311 312 313 313 316 319 322 324 326 326 327 328 328 327 326 325 323 323 323 323 322 323 323 324 325 324 322 321 322 322 322 322 322 322 324 325 325 325 325 326 326 326 326 326 325 324 324 324 325 325 325 324 324 324 324 325 324 324 324 323 322 323 323 323 322 321 318 316 314 314 314 313 313 312 312 312 313 313 313 313
309 309 309 309 310 310 311 312 312 314 317 320 323 324 325 326 327 328 327 326 325 324 323 323 324 324 324 324 325 325 324 322 322 323 323 323 323 323 323 324 325 325 325 326 326 326 326 326 325 324 323 323 323 324 325 325 325 324 324 325 325 324 324 323 322 322 322 322 322 322 320 318 315 314 314 313 313 313 312 312 312 312 313 313 313
307 308 308 308 309 309 310 311 311 312 315 319 321 323 325 325 326 327 327 326 325 324 323 324 325 326 325 324 324 324 323 323 323 324 324 324 323 323 324 324 324 325 325 326 326 326 326 325 324 323 322 322 322 323 325 325 324 324 324 324 324 323 322 321 321 321 321 320 319 319 318 317 315 313 313 313 313 313 313 313 313 313 314 315 315
306 307 307 307 308 309 309 310 310 311 314 317 320 323 324 324 325 326 326 325 325 324 323 323 325 327 326 324 324 323 322 323 324 324 324 324 324 324 324 324 325 325 325 326 326 326 325 325 324 323 322 321 320 321 323 323 323 323 323 323 322 321 320 319 319 319 319 318 317 317 316 315 314 314 314 314 314 314 314 315 315 316 316 317 317
305 306 306 306 307 308 309 309 309 309 311 314 318 322 324 323 324 325 325 324 324 324 324 324 325 327 326 324 323 322 321 323 325 324 324 324 323 323 324 325 325 324 324 324 324 324 324 324 323 322 322 321 320 320 320 321 321 321 320 320 320 319 319 319 318 318 317 316 316 316 315 315 315 315 315 316 316 316 316 317 316 316 316 316 316
303 304 305 305 306 307 308 308 308 308 309 310 314 318 321 322 322 323 324 324 324 324 324 324 325 327 325 323 322 321 321 323 325 324 323 323 322 323 324 325 324 322 322 322 322 322 322 322 321 322 322 321 320 319 319 319 319 319 318 319 318 318 318 318 318 318 318 317 316 316 316 316 317 317 316 317 317 316 316 317 316 316 316 316 316
300 302 303 304 305 306 307 307 307 307 307 307 309 312 316 318 319 319 321 323 323 324 325 325 326 326 324 323 323 322 323 324 324 324 323 322 321 322 322 323 323 322 321 321 321 320 321 321 321 321 321 321 320 319 319 319 319 318 318 317 317 317 317 317 317 317 318 317 316 316 316 316 316 316 316 316 316 316 316 316 316 315 315 314 314
299 300 301 303 304 305 306 307 307 307 306 306 306 308 311 313 314 314 315 317 318 320 322 324 326 325 324 323 324 325 325 325 324 324 323 323 322 321 321 322 322 321 321 321 320 320 320 321 322 321 320 320 319 319 319 319 318 318 317 316 316 316 316 317 317 316 317 316 316 316 316 315 316 316 316 316 316 316 315 314 314 313 312 310 309
299 299 299 300 302 303 305 306 306 306 306 305 305 305 306 309 311 311 310 309 310 312 315 318 322 323 322 321 322 322 323 323 323 323 323 323 322 322 321 322 322 321 321 320 320 320 320 320 320 320 319 319 319 319 319 319 318 317 317 317 318 318 318 318 318 318 317 317 317 317 317 316 315 315 314 313 313 312 312 311 310 309 308 306 305
300 299 298 299 300 301 303 305 305 305 306 306 305 304 304 305 307 308 307 305 305 307 309 311 314 317 317 317 317 318 319 320 321 321 321 321 321 321 321 321 321 321 320 320 320 320 319 319 319 319 319 319 319 319 318 318 318 318 318 317 318 318 317 317 317 316 316 315 315 315 314 313 312 311 310 309 308 308 307 306 305 305 304 303 303
301 300 299 298 299 300 301 302 304 305 305 305 305 305 304 304 305 306 306 305 304 305 305 306 309 311 313 314 314 315 316 317 317 317 318 319 319 319 319 319 320 320 319 319 319 319 319 319 319 319 318 318 318 318 318 318 317 317 317 317 316 315 314 312 311 311 310 310 309 309 308 308 307 306 306 305 305 304 304 303 302 302 301 301 300
300 300 300 299 298 300 301 302 302 303 304 304 305 305 305 305 305 305 305 305 305 305 305 304 305 308 310 311 312 313 314 314 315 315 316 316 317 317 317 318 318 318 318 318 318 318 318 318 318 317 317 317 316 316 316 316 316 315 314 313 312 311 310 308 307 306 306 305 305 305 304 304 304 304 303 303 303 302 301 300 299 299 298 298 297
300 300 300 300 299 299 301 302 303 303 303 303 303 304 304 305 305 305 305 305 305 306 305 304 303 304 306 307 308 310 311 311 312 313 314 314 315 315 316 316 316 316 316 317 317 317 317 317 317 317 316 315 315 314 314 313 314 314 312 310 309 307 306 306 305 304 304 303 303 303 302 302 302 302 301 300 300 299 298 297 297 296 296 296 296
300 300 300 300 299 299 299 301 302 303 303 303 302 302 303 303 304 304 304 304 304 304 305 305 305 304 303 303 304 306 307 307 308 309 310 312 313 313 314 314 313 314 315 315 315 316 316 316 315 315 315 314 312 312 312 312 312 312 311 309 307 305 304 304 303 303 303 302 302 301 301 300 300 299 298 298 297 296 296 296 296 296 296 296 296
299 300 300 300 300 299 299 299 300 301 302 303 302 302 302 302 302 302 302 303 303 303 303 304 305 305 305 304 304 305 305 305 305 306 307 309 310 311 312 312 312 312 313 313 313 313 314 314 313 313 313 312 309 309 311 310 310 309 309 308 306 304 303 302 302 302 301 301 300 300 299 298 298 297 296 296 296 296 295 295 296 296 296 296 297
298 299 300 300 300 300 299 299 299 299 300 301 301 302 302 302 302 302 302 302 302 302 302 302 302 303 304 304 304 304 304 304 304 304 304 305 306 307 307 307 307 307 308 308 309 309 310 310 309 309 309 309 307 307 308 308 307 307 307 306 304 302 301 301 301 300 300 299 299 298 297 296 296 295 295 295 296 296 296 296 296 296 296 297 297
298 298 299 299 299 299 299 299 299 299 298 299 299 299 300 300 300 300 301 301 301 301 301 301 301 300 301 302 302 303 303 303 303 303 303 303 303 303 303 303 303 303 304 304 305 305 306 306 305 305 305 306 305 305 305 304 304 304 303 302 302 301 301 300 300 299 298 298 297 296 295 295 295 295 296 296 296 296 296 296 297 297 297 297 297
298 297 298 298 299 299 299 299 299 299 299 299 298 298 298 298 298 298 298 299 299 299 299 299 299 299 299 299 300 300 301 301 302 302 302 302 302 302 302 303 303 302 302 302 302 302 302 303 303 303 303 303 303 302 302 302 302 302 301 301 300 300 299 298 298 297 296 296 295 295 295 296 296 296 296 296 296 296 297 297 297 297 297 297 297
298 297 297 297 298 298 299 299 298 299 299 299 299 299 298 298 298 298 298 297 297 297 298 298 298 298 298 298 298 298 299 300 300 300 301 300 300 300 300 300 300 300 300 300 300 300 301 301 302 302 302 302 301 301 301 300 300 300 299 299 298 297 297 296 296 295 295 295 295 296 296 296 296 296 296 296 296 296 296 296 296 296 296 296 296
298 298 297 297 297 298 298 298 298 298 298 298 298 298 298 298 298 298 298 297 297 297 297 297 297 297 297 297 297 297 297 298 298 298 299 299 298 298 299 299 299 299 299 300 300 301 301 301 301 301 301 301 300 300 299 298 298 297 297 296 296 296 295 295 295 295 295 296 296 296 296 296 296 296 296 296 296 296 296 296 296 296 296 296 296
298 298 297 296 297 297 298 298 298 298 298 298 297 297 297 297 298 298 297 297 297 296 297 297 297 297 298 298 298 298 298 298 298 298 299 299 299 300 300 300 300 300 300 300 301 301 301 301 301 300 300 299 299 298 297 296 295 295 295 295 295 295 295 295 295 296 296 296 296 296 296 296 296 296 296 296 296 295 295 295 295 295 295 295 295
297 298 297 296 296 297 297 297 297 297 298 297 297 297 297 297 297 297 297 297 297 297 297 297 297 297 298 298 298 298 299 299 299 299 300 300 300 300 301 301 301 301 300 300 300 301 300 300 300 299 299 298 297 297 296 295 295 295 295 295 295 296 296 295 295 295 295 295 295 295 295 295 295 295 295 295 295 295 294 294 294 294 294 294 294
297 298 297 297 296 296 296 296 297 296 297 297 297 297 297 297 297 297 297 297 297 297 297 297 297 297 297 298 298 299 299 299 299 300 300 300 300 300 300 300 300 300 300 300 300 300 300 299 299 298 298 296 295 295 295 295 295 295 295 295 295 295 295 295 295 295 295 295 295 295 295 295 294 294 294 294 294 294 294 294 294 293 293 293 293
297 298 297 297 296 296 296 296 296 296 296 296 296 296 296 296 296 296 296 296 296 296 296 296 296 296 296 297 298 298 298 299 299 299 299 299 299 299 299 299 300 300 300 299 299 299 299 298 297 297 296 295 295 295 295 295 295 295 295 295 295 295 295 295 295 295 295 294 294 294 294 294 294 293 293 293 293 293 293 292 292 292 292 292 292
297 298 297 297 296 296 296 296 296 296 296 296 296 296 296 296 296 296 295 295 295 295 295 295 295 296 296 296 296 297 297 298 298 298 298 298 298 299 299 299 299 299 299 299 298 298 297 296 296 295 295 295 295 295 295 295 295 295 295 295 295 295 295 294 294 294 294 294 293 293 293 293 293 292 292 292 292 292 291 291 291 291 291 291 291
297 298 297 296 296 296 296 296 297 297 296 296 296 296 296 296 295 295 295 295 294 294 294 294 294 295 296 296 296 296 296 296 297 297 297 297 298 298 298 298 298 298 298 298 298 297 296 295 295 295 295 295 295 295 295 295 295 295 295 295 294 294 294 294 293 293 293 293 292 292 292 292 291 291 291 291 291 290 290 290 290 291 291 291 291
297 297 297 297 296 296 296 296 296 296 296 296 296 296 296 295 295 295 295 295 295 294 294 293 294 295 295 295 295 295 295 296 296 296 296 296 296 296 296 296 296 297 297 297 296 295 295 295 295 295 295 295 295 295 295 295 294 294 294 294 294 293 293 293 292 292 292 291 291 291 291 290 290 290 290 290 290 290 290 290 290 290 290 291 291
297 297 297 297 297 297 297 296 296 296 296 296 296 296 296 295 295 295 295 295 295 294 294 293 293 294 294 294 294 294 294 294 295 295 296 296 296 295 294 294 295 296 296 295 295 294 294 295 294 294 294 294 294 294 294 294 294 294 293 293 293 292 292 292 291 291 291 290 290 290 290 289 289 289 289 289 289 289 290 290 290 290 290 291 291
297 297 297 297 298 297 297 296 296 296 296 296 296 296 296 295 295 295 295 295 295 294 294 293 293 292 292 293 293 293 293 293 293 294 294 295 294 294 293 294 294 295 294 294 294 294 294 294 294 294 294 294 294 293 293 293 293 292 292 292 292 291 291 291 290 290 290 290 289 289 289 289 289 289 289 289 289 289 289 290 290 290 290 290 291
297 297 297 297 298 298 297 296 296 296 295 296 296 296 296 295 296 295 295 295 295 294 294 293 293 292 291 292 292 291 292 292 292 292 293 293 293 293 293 293 293 293 293 293 293 293 293 293 293 293 293 293 293 293 293 292 292 291 291 291 290 290 290 290 290 290 290 289 289 289 289 289 289 289 289 289 289 289 289 289 290 290 290 290 290
297 297 297 297 298 298 297 297 296 296 295 295 295 296 296 296 296 296 295 295 295 294 294 294 293 292 291 291 291 291 292 292 292 291 291 291 291 292 292 292 292 292 292 292 293 293 293 292 292 293 293 293 292 292 292 291 291 291 290 290 290 290 290 289 289 289 289 289 289 289 289 289 289 289 289 289 289 289 289 289 289 289 289 289 290
297 296 296 297 297 298 297 297 297 296 296 295 295 295 295 295 295 295 295 295 295 294 294 294 293 292 291 291 291 292 292 292 291 291 291 291 291 291 292 292 292 292 292 292 292 292 292 292 292 292 292 292 292 291 291 291 291 291 290 290 290 289 289 289 289 289 289 289 289 289 289 289 289 289 289 289 289 289 289 289 289 289 289 289 290
297 296 296 297 297 297 297 297 296 296 296 296 296 295 295 295 295 295 295 295 294 294 294 293 292 292 291 291 291 292 292 292 292 292 292 291 291 292 292 293 292 292 292 292 292 292 292 292 292 292 292 292 291 291 291 291 291 291 290 290 289 289 289 289 289 289 289 289 289 289 289 289 289 289 289 289 289 289 289 289 289 290 290 290 290
297 296 296 297 297 297 297 297 296 296 296 296 296 296 295 295 295 295 294 294 294 294 294 294 293 292 292 291 291 291 292 292 292 291 291 291 292 292 292 293 293 292 292 292 292 292 292 292 292 291 291 291 291 290 290 291 291 290 290 289 289 289 289 289 289 289 289 289 289 289 289 289 289 289 289 289 289 289 289 289 289 290 290 289 289
297 296 296 296 296 297 297 297 297 297 296 296 296 296 295 295 295 294 293 293 293 293 293 293 293 292 292 292 291 291 292 292 292 292 291 291 291 291 292 292 292 292 292 292 292 292 291 291 291 291 291 290 290 290 290 290 290 290 289 289 289 289 289 289 289 289 289 289 289 289 289 289 289 289 289 289 289 289 289 289 289 290 290 290 289
297 296 296 296 296 296 296 296 296 296 296 296 296 295 296 295 295 294 293 293 293 293 293 292 292 292 292 292 292 291 292 292 292 292 291 291 291 291 291 291 291 292 292 292 291 291 291 291 291 291 291 291 290 290 289 289 289 289 288 288 288 289 289 289 289 289 289 289 289 289 289 289 289 289 289 289 289 289 289 289 289 289 290 290 290
295 296 296 296 295 295 295 295 295 295 295 295 295 296 296 295 295 294 294 293 292 292 292 293 293 293 292 292 292 292 291 291 292 292 291 291 291 291 291 290 290 290 291 291 291 291 291 291 291 291 291 291 291 290 290 288 288 288 287 288 289 289 290 290 290 290 290 289 289 289 289 289 289 289 289 289 289 289 289 288 289 289 289 290 290
291 295 296 295 295 295 294 294 294 294 294 294 295 295 296 295 295 294 294 293 292 292 293 293 293 293 293 292 292 292 292 291 291 291 291 291 291 291 290 290 290 290 290 290 290 290 290 290 290 290 290 290 290 290 289 288 287 287 287 288 289 290 290 290 290 290 290 290 290 290 289 289 289 289 289 289 289 288 287 287 288 289 289 289 290
289 293 295 295 294 294 294 293 293 294 294 294 294 295 295 295 295 295 294 293 292 292 292 293 293 293 293 293 293 292 292 292 292 291 291 291 291 291 290 290 290 290 289 289 289 288 288 288 288 288 288 288 288 288 288 288 287 288 288 289 290 290 290 290 290 290 290 290 290 289 289 288 288 288 288 287 287 286 285 286 287 288 289 289 290
289 291 294 294 293 293 293 293 293 293 294 294 294 294 295 295 295 295 294 294 293 292 292 292 292 292 293 293 293 292 292 292 292 292 291 291 291 291 291 290 290 289 289 289 289 288 287 287 287 287 286 287 287 288 288 288 289 289 289 289 290 290 290 290 290 290 290 290 289 289 289 288 288 287 286 285 285 284 284 285 286 287 289 289 289
Wind_Speed
16 16 16 18 19 19 19 18 17 18 19 21 23 22 21 22 20 17 17 17 19 22 22 23 21 19 18 19 20 21 22 22 22 22 23 24 24 23 22 22 22 21 21 22 22 22 21 20 20 20 20 20 20 19 18 17 17 17 16 15 15 15 15 14 13 12 8 5 8 12 12 11 11 11 12 11 10 9 9 10 10 10 9 9 10
17 17 16 17 18 17 18 18 17 17 18 19 20 19 21 24 21 18 17 18 20 22 22 22 21 19 19 19 19 19 21 22 22 22 23 23 23 23 23 22 23 22 21 22 22 22 21 20 20 21 21 21 20 19 18 17 18 18 17 16 16 16 16 15 15 14 12 9 9 11 13 12 11 11 11 11 10 9 9 9 10 9 9 10 10
16 16 16 15 15 15 16 17 18 18 18 18 18 18 19 22 21 18 18 20 21 22 22 21 21 21 21 20 19 19 20 21 22 22 22 21 22 23 24 23 23 23 22 22 22 21 21 20 20 21 22 21 21 20 19 18 18 18 18 17 17 17 17 17 17 16 15 13 11 11 12 13 12 11 11 10 10 10 10 10 10 10 10 11 11
16 14 15 14 14 15 15 17 18 18 18 18 18 18 17 17 18 19 20 20 21 22 22 22 22 22 22 22 20 19 19 20 20 20 20 20 21 23 23 23 23 22 22 22 22 22 21 21 21 21 21 20 20 20 20 19 18 18 18 18 18 19 19 19 19 18 17 16 14 13 13 14 13 12 12 12 12 12 11 11 11 12 12 13 13
21 18 15 14 14 15 17 19 20 19 18 17 16 16 15 14 16 20 22 21 22 24 24 23 23 22 22 22 21 20 20 20 19 18 19 19 20 21 21 21 21 21 20 21 22 22 22 22 22 21 21 20 21 21 21 20 20 20 20 19 19 19 20 20 20 20 19 18 16 16 15 15 15 14 14 14 15 14 13 12 13 13 13 14 14
27 24 21 16 13 13 14 17 20 20 18 14 12 13 13 14 15 19 22 22 23 25 25 24 23 23 22 22 23 22 20 19 18 17 18 19 19 19 20 20 21 21 20 20 21 22 22 23 22 21 21 21 21 22 22 22 22 22 22 21 20 20 21 21 21 21 21 19 18 18 17 16 15 16 16 17 17 16 15 14 14 13 13 13 14
30 29 26 22 17 13 12 13 16 18 16 13 12 12 13 14 15 18 21 22 23 25 26 25 24 23 23 23 24 22 21 20 18 17 18 18 18 19 20 21 21 21 20 20 20 21 22 22 21 20 20 20 20 20 21 22 23 23 24 22 21 20 21 21 22 23 22 21 20 19 18 17 17 17 18 18 19 19 18 18 16 14 13 12 12
30 30 29 28 25 20 15 12 13 14 15 14 12 12 13 15 16 18 21 22 23 25 25 24 24 23 22 23 23 22 22 21 19 19 20 20 19 19 20 21 20 20 20 20 20 20 20 19 18 18 18 18 18 19 20 21 22 24 25 24 22 22 21 21 22 23 23 22 22 22 20 19 19 19 19 19 20 21 21 19 17 15 14 13 12
29 29 29 30 29 27 22 16 12 12 14 14 13 12 13 15 15 18 22 23 24 25 25 24 24 23 22 22 22 22 22 21 21 21 22 21 21 20 20 20 19 19 19 19 19 18 18 17 16 16 17 17 17 19 20 21 21 23 24 23 23 23 22 22 22 23 24 24 25 24 23 21 21 20 19 19 19 20 19 19 18 16 16 16 15
28 29 30 31 31 29 27 22 15 11 13 14 14 12 13 16 16 18 22 24 26 27 26 24 24 23 23 22 22 23 24 22 21 22 22 22 21 21 21 20 20 19 19 18 18 18 17 17 16 15 16 16 16 18 18 18 18 19 19 20 21 22 21 21 21 22 23 25 27 26 25 22 21 20 19 18 18 18 18 18 18 17 17 18 17
29 30 31 32 33 33 31 28 23 13 12 15 15 13 12 15 18 19 21 24 26 27 27 26 25 25 23 22 22 23 24 23 22 22 22 21 21 21 21 20 20 19 19 18 17 17 17 16 15 16 16 15 15 16 15 15 16 17 17 18 19 19 19 18 18 20 22 24 25 25 24 22 20 20 19 18 18 18 19 19 18 18 18 19 18
30 31 32 33 34 36 36 34 30 20 11 13 16 15 13 14 18 21 23 25 26 28 28 27 27 27 25 23 22 23 24 23 22 22 22 21 21 21 20 20 19 19 19 18 18 18 18 17 16 16 15 15 15 15 15 15 15 16 16 16 17 17 17 17 17 20 22 22 22 23 22 21 20 20 20 20 19 19 19 20 20 20 20 20 20
31 32 33 34 35 37 39 38 35 27 15 8 13 16 15 15 17 21 25 27 28 29 30 28 27 28 27 24 23 24 24 23 23 22 21 20 19 20 20 19 19 19 19 19 19 19 19 18 17 16 15 14 14 14 14 14 14 14 14 14 15 16 16 16 16 18 20 20 20 21 21 21 20 20 20 21 20 20 20 21 21 21 22 22 22
32 33 34 35 35 37 39 40 39 31 18 8 7 13 16 17 19 22 26 30 30 30 30 28 26 27 27 25 24 24 25 24 23 22 21 19 19 20 21 20 20 20 20 20 20 20 20 18 17 16 14 13 12 12 12 12 12 12 12 13 14 14 15 15 15 17 19 19 19 20 20 20 20 20 20 21 21 21 21 22 22 23 23 23 22
33 33 34 35 36 37 38 38 39 33 22 14 9 11 15 17 21 24 26 30 31 30 30 29 28 28 28 26 25 27 27 26 24 23 21 20 20 21 21 21 20 20 20 20 20 20 20 19 17 16 15 13 11 10 10 10 10 10 9 10 12 12 13 13 12 16 18 18 18 19 19 19 19 19 19 19 19 20 20 21 21 21 20 19 18
33 33 33 34 35 37 37 37 38 35 26 19 12 12 15 16 20 25 26 28 30 30 30 30 30 29 28 27 28 28 28 27 25 23 22 22 22 22 22 22 21 19 19 19 19 18 19 19 18 17 15 13 12 11 9 9 8 8 7 7 8 10 11 9 9 11 13 14 15 15 15 15 15 15 15 15 16 17 18 18 17 15 16 16 17
34 33 33 33 32 33 36 36 37 35 30 22 16 12 14 15 19 24 25 26 29 30 30 30 31 30 28 27 28 29 28 27 26 25 24 24 23 24 23 23 21 20 18 18 17 17 17 18 18 18 17 15 13 12 10 9 8 7 7 7 7 9 9 8 8 9 8 9 10 11 12 13 12 13 13 13 14 14 15 15 13 13 15 16 16
33 33 33 32 30 29 32 35 36 36 32 26 21 17 13 12 15 19 23 26 28 29 30 31 32 31 29 28 28 28 28 27 26 26 26 26 25 24 24 23 21 20 19 19 18 17 16 17 18 18 17 16 14 12 11 10 9 8 7 7 7 8 8 8 9 10 10 10 9 9 10 9 9 10 10 9 11 12 11 11 12 12 14 14 14
32 31 31 31 30 28 28 31 33 35 33 28 23 20 16 11 9 12 16 20 22 24 27 29 31 30 29 29 29 28 28 27 27 27 28 28 27 25 24 23 22 21 20 20 19 17 16 16 18 18 17 15 14 13 12 11 10 9 8 7 7 8 8 8 9 10 11 10 10 11 10 8 8 10 9 9 12 13 12 12 13 13 14 14 15
29 29 29 30 31 29 26 27 29 32 33 30 26 22 18 13 8 5 7 9 12 16 19 22 27 29 28 28 29 28 28 28 28 28 29 29 28 27 26 24 23 22 22 22 20 19 17 17 18 18 17 15 14 13 12 12 11 10 9 8 8 9 9 9 9 9 9 8 8 9 9 8 8 9 9 9 11 13 13 14 14 15 15 16 16
27 27 27 28 30 31 29 26 25 26 28 29 28 26 24 18 11 4 4 9 11 12 14 15 20 25 26 26 27 27 28 29 29 29 28 28 27 26 25 24 24 24 24 23 22 20 20 19 19 18 17 16 15 14 13 13 12 11 11 10 9 9 9 9 9 9 8 8 8 8 8 8 8 9 10 10 11 12 13 14 14 14 15 16 16
25 26 26 26 26 28 30 29 26 24 22 22 24 26 27 25 20 14 9 11 16 18 18 18 16 19 23 23 24 25 26 27 28 27 26 27 25 23 22 22 23 23 23 23 23 22 21 21 20 19 18 16 15 14 14 14 14 13 12 11 9 9 9 8 7 7 7 6 6 6 7 7 8 8 9 10 11 12 13 13 14 14 15 15 16
24 25 26 26 25 24 26 27 28 28 25 22 21 20 21 22 23 22 18 15 16 19 22 24 23 21 21 20 20 21 21 22 22 22 22 23 22 21 20 20 20 20 20 21 21 21 20 20 20 20 19 18 17 17 16 16 16 14 12 10 9 8 8 7 6 5 4 4 3 4 5 6 7 9 10 11 12 12 13 13 13 13 13 14 15
23 24 25 26 26 24 23 23 25 27 28 27 25 23 20 17 16 18 19 18 17 17 18 21 24 24 23 22 20 18 17 17 17 18 18 19 20 20 20 19 19 18 17 17 17 17 17 18 18 19 19 19 19 18 17 14 13 11 9 7 6 5 4 4 3 3 2 3 4 5 7 8 9 9 10 10 10 11 12 12 13 13 13 13 15
22 23 24 25 26 25 24 22 22 23 25 26 28 28 25 22 18 16 16 15 14 13 13 13 16 20 21 22 21 19 16 15 15 15 15 15 17 18 18 19 18 16 14 15 15 15 16 16 17 17 17 16 14 13 12 9 8 7 6 4 3 2 2 3 3 4 4 5 6 7 8 9 9 10 10 10 11 11 12 12 13 13 12 12 13
23 22 21 23 24 25 25 25 23 22 22 23 26 27 27 26 25 23 22 22 19 15 12 9 8 9 11 13 14 14 13 12 12 12 11 11 12 12 13 13 13 11 11 12 13 13 14 13 13 13 12 10 8 7 6 5 4 3 2 1 1 1 2 3 4 4 5 5 6 7 8 9 10 10 11 11 11 11 11 11 11 11 10 9 10
23 21 20 20 21 22 24 25 25 23 22 21 22 23 23 23 24 25 25 26 25 22 19 16 14 11 8 7 6 5 5 5 6 7 7 7 7 8 8 9 8 7 7 7 7 7 8 7 7 7 7 6 4 3 3 3 3 2 1 0 1 2 3 4 4 5 6 6 6 7 7 8 9 10 10 11 11 10 10 9 9 9 9 8 8
22 22 20 19 19 20 21 23 24 24 23 22 21 21 21 21 21 22 22 22 23 23 22 22 21 20 17 14 11 7 4 2 1 1 2 4 5 6 6 7 8 9 9 8 8 7 6 5 4 5 5 4 4 4 5 5 4 3 2 1 1 3 4 5 5 6 6 6 6 6 7 7 8 9 8 8 8 8 7 7 7 8 8 8 8
20 21 21 19 18 19 20 21 22 22 23 23 23 23 22 21 21 20 19 18 19 19 19 20 20 20 20 19 18 16 14 11 8 7 7 7 8 8 8 8 9 10 11 11 11 9 8 6 5 6 6 6 5 6 6 4 4 3 1 1 2 3 4 5 5 5 5 5 5 5 6 6 5 5 5 5 5 6 7 7 7 8 8 9 9
19 20 20 19 17 16 17 19 20 21 21 21 23 23 23 23 22 22 20 18 17 16 16 16 16 16 16 16 17 17 17 16 15 14 14 15 15 15 15 14 14 14 13 11 10 8 7 6 6 6 6 5 4 3 3 2 3 3 3 3 4 4 5 5 5 5 4 4 4 3 2 1 1 2 3 4 5 7 8 8 9 9 9 9 9
19 18 19 19 17 15 15 17 18 18 19 20 21 22 22 22 22 22 21 19 18 16 15 14 13 13 12 12 13 13 14 14 15 15 17 18 18 17 15 14 13 12 10 8 7 7 7 6 5 5 3 2 1 1 2 3 4 4 4 4 4 5 5 4 4 4 3 2 1 1 2 3 3 4 4 5 6 7 8 9 9 9 9 9 9
18 17 17 17 17 16 16 17 17 17 17 18 19 20 21 21 21 21 21 20 19 18 16 15 13 12 12 11 10 10 11 11 12 12 13 13 13 12 11 10 9 9 8 6 5 6 5 3 3 3 1 1 2 2 3 4 4 4 4 4 4 3 3 2 2 1 2 3 4 4 5 5 5 5 6 6 6 6 7 7 8 9 9 9 9
16 16 14 14 15 16 17 17 17 17 17 18 18 19 19 19 20 20 20 20 19 18 17 16 15 13 12 11 10 10 10 9 9 9 9 9 9 9 10 10 9 8 6 3 0 1 2 2 1 1 1 2 3 4 4 4 4 4 4 4 4 4 4 4 5 6 6 6 6 6 6 6 6 6 5 5 6 6 7 7 8 8 8 7 7
15 14 13 12 13 15 16 17 18 18 17 17 18 18 18 18 18 19 19 18 18 18 17 17 16 15 13 11 11 10 10 10 9 9 10 9 9 8 8 8 7 6 3 1 2 1 2 2 3 3 3 3 2 3 3 3 4 4 4 5 6 7 8 8 8 7 7 7 6 6 6 6 6 6 6 6 7 7 7 8 8 8 8 8 8
13 13 13 11 11 13 15 16 16 17 18 18 17 17 17 17 17 17 16 16 17 17 17 16 15 14 13 12 11 10 10 10 10 10 9 8 7 6 5 4 4 3 2 2 2 2 3 4 4 4 3 2 2 3 4 5 6 6 7 7 8 9 9 9 8 7 7 6 6 6 6 6 6 6 7 7 8 8 8 9 9 10 10 11 11
12 13 13 12 11 12 13 15 15 15 16 17 18 16 16 16 16 16 16 16 16 17 17 17 15 12 11 9 9 9 8 7 6 6 5 4 4 3 2 1 2 2 2 3 3 4 4 5 4 4 3 3 4 5 6 7 8 9 9 9 10 9 9 8 7 7 6 5 5 6 6 6 7 8 8 8 9 9 10 10 10 11 12 12 12
11 13 14 13 12 12 12 13 14 14 14 15 16 16 16 16 17 17 17 17 17 18 18 17 14 11 9 7 7 6 5 4 3 2 1 1 2 2 3 3 4 4 4 5 5 6 5 4 4 4 5 6 7 8 8 9 10 10 10 10 9 8 8 7 7 6 6 5 6 7 7 8 9 9 9 10 10 10 10 10 10 11 11 12 12
11 13 14 14 13 12 10 10 11 12 12 13 14 15 15 16 17 17 16 17 17 18 19 18 15 11 9 9 8 7 6 5 5 5 5 5 5 5 6 6 6 7 7 6 6 4 3 4 6 7 8 9 9 10 10 10 11 10 10 9 8 8 7 7 7 7 6 7 7 8 9 9 9 9 9 10 10 10 11 11 12 11 11 11 12
10 11 12 12 11 10 9 8 10 11 11 11 13 13 14 15 17 17 17 16 16 16 17 17 16 13 11 11 11 11 9 9 8 8 8 8 7 7 6 6 6 5 5 5 3 3 4 7 9 10 11 11 11 11 10 10 10 10 9 8 7 8 8 8 7 7 7 8 8 9 10 10 10 9 9 9 10 10 11 12 13 12 11 10 10
11 12 11 11 10 9 7 7 9 11 11 11 11 12 13 14 16 17 17 16 15 15 15 15 15 15 13 12 13 13 11 10 10 9 9 8 7 5 2 2 3 3 3 3 4 6 8 11 12 13 12 12 11 11 10 10 9 9 8 8 8 8 8 8 8 8 9 9 9 10 10 10 10 10 10 11 11 11 11 12 12 12 10 9 9
12 12 12 11 10 8 6 6 7 10 11 11 11 11 12 13 15 16 17 16 15 15 14 12 13 17 17 14 13 13 11 9 8 7 6 5 4 2 2 3 3 3 3 5 7 9 12 13 13 12 11 11 10 10 9 9 9 9 9 9 9 9 8 8 8 9 9 9 9 9 9 10 10 11 11 11 12 11 11 10 10 10 10 9 9
11 13 14 13 10 7 6 6 6 7 9 10 11 11 12 13 14 15 16 15 14 14 13 11 13 18 20 17 14 13 9 5 3 3 2 1 1 0 2 5 6 6 6 8 10 12 12 11 11 10 9 9 9 8 9 9 9 10 9 9 9 8 8 8 8 9 9 8 8 8 9 10 10 11 11 11 11 11 10 9 8 8 8 8 8
10 12 14 13 9 7 6 6 5 5 7 9 10 11 11 12 13 14 15 15 14 13 12 11 14 18 19 17 14 13 12 9 5 3 3 3 4 5 6 8 10 10 9 9 11 12 11 9 9 8 8 8 8 9 9 9 9 9 8 8 8 7 7 7 7 7 7 7 8 9 9 10 10 10 9 9 10 9 9 8 8 8 8 8 8
9 11 13 12 8 6 6 6 5 5 6 8 10 10 9 10 11 13 14 14 13 12 11 11 13 15 16 16 13 12 13 13 11 10 9 8 7 7 7 9 11 11 9 9 10 11 11 9 8 7 6 6 7 8 8 8 8 7 7 6 6 5 5 5 5 5 6 8 9 9 9 8 8 7 7 7 7 6 6 7 8 8 9 9 9
7 9 11 10 7 6 6 7 7 8 9 10 9 8 7 8 10 11 13 13 12 10 9 10 10 11 13 15 14 11 10 11 11 11 11 10 9 8 7 8 9 9 8 7 7 9 9 9 7 6 6 7 7 7 6 6 6 6 5 5 4 4 4 4 6 7 8 8 8 7 6 6 5 5 5 5 5 5 5 6 8 8 8 9 9
5 7 8 8 8 9 9 9 9 10 10 10 9 6 5 6 8 10 12 12 11 9 8 8 9 9 11 12 11 9 7 8 9 10 10 9 9 8 7 6 7 7 8 7 6 7 7 6 6 7 7 7 6 5 5 4 4 5 5 4 4 4 4 6 7 8 7 6 5 4 3 2 2 3 3 3 4 3 3 4 6 7 8 8 9
5 6 7 8 9 10 10 10 10 9 9 10 8 6 5 5 6 8 11 12 10 8 7 7 7 8 9 9 8 6 5 6 7 8 9 8 8 7 6 6 5 5 5 5 6 6 5 5 6 7 6 5 4 4 4 4 4 4 4 4 4 4 5 6 6 6 5 4 3 2 2 2 2 3 3 4 4 3 3 3 3 4 6 7 8
6 6 7 8 9 9 9 9 9 9 9 9 8 6 5 4 5 7 10 11 10 8 7 6 6 6 8 9 8 6 4 5 5 4 5 5 5 5 5 5 5 4 3 3 4 5 5 5 6 6 5 5 4 4 4 4 4 4 4 4 4 5 5 5 4 4 3 2 2 3 3 4 4 4 4 5 5 5 4 3 1 1 4 5 6
8 7 7 8 9 10 9 9 8 9 10 10 9 7 5 4 4 6 8 9 9 8 7 6 6 6 6 6 5 5 5 5 4 3 3 3 3 4 3 3 3 3 2 2 3 4 5 5 5 5 4 4 4 4 4 4 4 4 4 4 5 5 4 4 3 2 2 1 2 4 4 5 6 6 5 6 6 6 6 4 2 1 2 3 4
9 7 6 7 8 10 10 9 9 9 10 10 10 9 6 5 5 6 8 8 8 7 6 6 6 6 6 5 5 5 5 4 3 3 2 1 3 5 5 4 3 3 3 2 0 2 3 3 4 4 4 4 4 4 4 4 3 4 4 5 5 5 4 3 2 1 1 2 3 4 5 6 7 7 7 7 7 7 6 5 2 2 2 1 2
9 6 5 6 9 10 11 11 10 9 9 10 11 10 8 6 6 5 6 7 7 7 6 5 5 5 6 6 6 6 5 3 3 3 2 1 2 4 6 7 6 5 3 2 1 1 2 2 3 3 3 3 3 3 3 3 4 5 5 6 5 4 3 2 0 1 2 3 4 5 6 7 8 9 9 8 8 6 5 4 1 3 4 2 2
Wind_Direction
317 309 300 293 288 282 280 280 279 283 285 280 274 268 260 259 252 240 238 235 219 207 207 211 213 217 227 231 228 226 225 222 220 220 220 220 220 219 219 219 220 218 216 217 216 214 214 213 213 217 220 222 224 224 224 227 228 228 227 225 225 229 233 233 235 236 239 220 186 189 194 199 203 202 203 208 214 220 222 224 227 228 227 229 236
330 324 315 304 296 292 291 290 286 286 287 283 278 276 271 268 260 243 234 227 215 208 208 209 211 218 224 226 224 223 223 221 220 221 222 223 221 219 218 218 219 218 216 214 213 213 215 215 214 217 217 218 220 222 223 226 229 228 226 225 225 228 232 233 233 233 232 228 211 200 201 204 205 203 204 208 216 224 226 226 230 233 233 235 238
337 328 321 311 297 292 295 298 296 294 291 282 275 276 277 275 267 251 239 229 217 211 209 209 212 219 223 223 223 223 222 219 218 220 222 224 221 218 218 220 221 220 218 216 214 214 217 217 217 220 219 215 215 218 221 224 226 227 227 229 229 231 232 233 233 231 228 229 229 220 215 214 213 208 206 210 217 225 228 228 231 233 235 238 241
353 337 325 316 301 290 286 287 292 300 300 289 277 273 271 269 261 248 242 237 225 215 211 212 215 220 225 225 224 225 223 218 217 220 222 224 221 218 219 222 224 223 221 219 218 217 217 218 219 222 224 220 215 216 219 221 224 226 228 230 233 234 235 234 234 232 230 231 233 231 229 229 228 222 216 215 219 225 229 230 231 233 234 238 241
8 358 344 331 314 299 286 276 277 290 299 297 290 281 269 258 248 240 238 235 226 218 215 216 218 221 224 225 222 223 223 218 217 220 221 222 222 220 220 220 221 223 221 219 221 222 221 220 220 221 223 223 220 219 222 224 225 227 229 230 232 234 236 236 235 232 229 230 234 237 238 238 238 234 228 225 226 230 233 234 235 237 238 239 238
13 9 2 354 335 313 294 278 272 276 282 287 287 279 266 255 245 236 233 230 225 222 220 220 221 220 222 223 221 221 222 220 219 219 220 219 220 221 221 219 219 220 219 219 221 223 223 222 220 220 222 223 223 224 225 226 227 228 230 230 231 232 236 238 235 231 228 228 231 236 239 241 245 246 240 234 232 234 237 240 243 244 245 243 237
14 12 9 6 356 335 307 288 281 277 275 274 272 265 256 253 249 237 230 230 230 228 225 222 220 219 221 222 220 218 219 221 221 221 221 220 218 221 221 220 222 220 218 219 221 223 224 222 218 219 221 223 226 227 228 229 228 229 231 232 233 234 235 237 235 231 229 227 226 229 235 242 250 253 249 241 237 237 238 241 243 244 246 246 241
12 10 8 7 4 356 337 307 287 281 278 273 268 263 252 246 247 239 230 230 231 229 224 220 217 218 220 221 221 219 217 218 221 222 222 221 219 220 219 218 221 221 217 218 219 220 222 221 218 218 222 225 227 229 229 230 230 230 231 232 233 233 234 237 237 234 231 229 228 230 235 243 252 253 246 240 239 238 238 239 242 243 246 249 249
11 10 8 6 4 1 355 337 301 275 270 267 262 260 250 241 239 236 230 228 229 225 218 213 214 218 220 218 220 223 221 219 221 223 222 220 219 219 219 219 219 217 215 215 216 216 217 218 217 217 222 225 225 227 230 231 232 233 233 233 234 236 235 236 238 237 234 232 231 233 237 245 251 248 239 236 239 242 242 241 241 242 246 252 254
13 12 11 10 5 1 359 354 333 284 257 256 254 249 244 239 236 234 230 226 224 221 214 209 212 217 220 216 215 220 222 220 220 222 221 220 219 218 218 219 217 216 215 215 215 215 213 213 213 215 220 223 225 230 235 237 238 239 238 236 237 239 239 238 239 239 237 234 232 234 239 245 246 240 235 236 240 246 247 245 244 245 249 255 258
17 14 12 10 8 5 2 360 352 321 263 249 249 243 238 236 233 231 228 223 220 217 211 209 212 215 215 214 214 216 218 218 218 218 217 216 217 217 217 217 217 216 216 216 215 214 211 210 210 212 215 217 222 229 234 235 236 238 239 237 234 234 236 237 240 240 237 232 230 231 236 243 242 237 237 239 241 246 249 248 248 249 251 257 261
18 16 13 10 9 8 5 3 360 346 302 253 244 241 237 235 231 227 223 220 217 214 211 211 213 213 214 215 216 216 216 216 215 214 213 212 213 215 216 217 217 218 218 216 215 214 211 210 210 209 209 212 220 228 231 230 230 232 236 239 237 235 236 238 241 241 236 230 227 228 233 238 239 238 240 241 242 248 251 251 252 252 254 258 263
17 16 16 13 11 10 8 6 4 357 340 284 247 238 235 236 232 224 220 219 218 216 213 212 211 212 216 217 216 215 214 212 211 209 209 210 211 214 215 215 217 218 217 214 212 211 209 209 208 206 208 216 225 230 230 229 230 232 238 243 241 239 239 239 240 240 234 226 225 230 236 238 238 239 241 243 246 250 251 252 253 255 258 260 262
17 17 17 16 13 11 9 8 6 1 357 342 272 241 235 241 239 228 219 216 218 219 216 214 213 214 216 219 218 216 211 208 207 206 207 211 213 214 213 213 215 216 214 211 209 208 207 208 207 207 211 220 227 229 228 227 228 231 237 242 244 244 242 239 237 236 232 228 227 230 235 239 239 241 243 244 247 249 250 251 253 255 258 260 261
19 18 17 17 16 15 13 11 8 4 2 359 320 254 237 242 242 236 227 219 218 219 217 216 218 218 218 218 218 214 208 204 206 207 210 214 217 217 215 213 212 212 211 210 209 208 209 209 208 208 213 216 218 222 222 218 218 224 231 240 246 247 243 238 233 231 232 233 229 226 229 235 237 240 242 244 246 249 249 251 252 254 255 257 261
21 18 17 17 16 17 17 16 12 7 5 2 334 269 239 236 232 229 228 224 221 220 219 219 220 220 218 218 217 212 205 203 206 209 211 215 218 218 216 212 209 209 209 209 209 209 210 210 208 208 210 211 211 214 216 213 212 216 221 228 234 236 235 233 229 225 223 224 224 222 224 229 231 233 235 236 239 241 243 244 245 250 257 262 267
23 19 19 18 16 17 19 21 19 12 8 6 349 301 255 236 226 219 217 220 223 225 224 223 222 220 218 216 214 209 203 203 208 210 211 213 214 215 214 210 208 208 208 209 209 209 209 210 211 210 208 209 210 212 214 216 217 218 219 217 221 228 232 229 224 220 210 204 205 206 209 211 214 217 218 221 228 233 238 245 250 259 267 271 273
25 21 20 20 18 17 20 23 24 19 15 13 4 338 298 252 228 216 209 210 217 222 225 224 221 218 215 214 213 210 205 207 212 214 211 210 211 213 212 211 210 210 209 208 208 208 207 207 207 205 204 207 211 213 217 223 226 226 224 219 221 227 230 224 220 223 222 216 215 222 222 215 220 231 233 239 251 257 262 268 273 276 276 276 278
25 23 22 22 21 19 21 25 28 28 23 21 19 5 340 302 250 216 201 199 203 208 214 218 218 215 212 211 211 211 212 213 217 218 214 210 211 214 214 213 213 211 210 209 206 202 199 196 195 196 200 206 210 214 220 225 226 223 216 212 216 218 219 218 217 222 229 230 233 243 248 249 253 260 266 268 271 280 287 286 286 289 288 288 287
23 24 23 24 24 24 24 26 30 34 33 30 32 31 17 350 310 243 185 170 177 185 192 203 208 208 208 208 206 206 209 213 214 215 214 211 211 215 217 217 218 216 212 210 208 203 198 196 195 198 204 209 212 215 217 217 216 213 205 203 208 206 204 207 208 212 220 226 231 242 254 262 265 269 275 275 276 283 288 289 291 292 292 293 293
20 23 25 25 25 27 29 28 27 31 36 37 41 47 47 38 21 8 94 100 108 133 153 170 187 192 193 197 198 195 195 201 203 204 205 206 208 212 215 217 220 220 215 210 208 205 202 201 202 205 208 211 213 214 211 205 201 199 196 196 199 197 195 197 201 205 214 223 232 244 255 262 266 271 276 279 282 285 287 289 292 291 291 292 292
19 22 26 26 24 24 28 30 28 26 28 33 40 48 55 58 59 59 68 76 77 86 101 112 135 160 169 176 183 181 180 186 190 190 192 196 199 203 208 212 216 218 216 210 207 204 202 201 202 202 202 202 202 202 201 197 192 191 192 193 195 194 192 193 196 201 210 218 226 235 244 254 263 270 276 281 286 290 292 294 295 295 295 295 294
20 22 27 29 27 23 22 25 29 31 30 29 32 38 45 53 62 68 73 78 71 66 70 78 88 111 130 139 150 159 162 169 177 181 183 187 188 190 195 201 204 207 210 208 203 200 199 198 197 195 192 190 189 188 189 190 191 189 187 188 189 189 188 189 189 194 205 219 236 254 266 275 281 285 289 292 294 296 297 297 297 298 300 300 299
23 25 28 31 31 28 22 20 23 29 33 35 35 37 36 36 48 59 65 74 75 66 60 59 63 75 89 97 106 120 128 135 146 157 164 171 175 177 181 184 185 190 196 197 194 194 196 196 195 194 192 188 187 188 187 186 187 187 185 183 178 173 172 178 188 206 237 273 289 296 297 296 295 296 296 297 299 301 301 301 301 303 305 305 304
23 27 29 32 33 32 29 26 23 23 27 31 35 39 40 38 40 43 46 52 56 57 59 57 52 56 64 70 78 87 93 98 109 122 135 146 155 162 167 169 170 175 183 186 186 189 192 191 191 193 193 189 185 185 183 179 180 184 186 185 177 174 197 224 240 255 273 288 294 298 300 301 301 301 301 301 302 303 305 306 307 308 311 311 309
23 26 28 31 32 33 33 32 30 27 26 27 30 33 36 38 41 43 43 44 43 39 40 45 46 47 49 51 58 68 73 71 77 90 106 124 138 148 158 163 165 172 180 180 178 179 183 184 183 186 190 186 175 169 171 172 172 170 171 207 256 243 235 240 252 269 282 288 289 292 295 297 299 299 299 300 301 302 305 306 306 308 312 313 313
23 25 27 28 28 30 32 34 34 33 32 32 32 32 31 31 34 37 39 40 41 41 40 40 41 43 41 33 27 33 41 41 45 58 73 95 115 124 132 135 132 131 138 144 148 156 162 165 164 165 169 171 165 150 144 146 141 124 102 295 282 276 259 254 264 278 285 289 292 294 295 295 295 297 299 303 305 307 309 311 311 313 316 320 323
22 24 26 26 26 27 29 32 34 35 35 35 36 38 37 33 32 33 34 32 31 33 34 35 36 38 40 42 43 43 47 49 46 62 66 76 91 98 103 106 101 96 96 93 92 96 98 99 105 108 112 122 127 119 116 122 125 120 115 148 238 258 262 266 274 278 280 283 286 289 294 297 299 302 306 310 313 317 323 330 332 333 338 340 338
22 24 24 24 25 26 28 30 32 33 35 36 37 38 40 39 36 35 34 30 25 24 25 26 27 28 28 31 38 45 52 57 69 89 105 110 109 108 110 113 111 106 101 93 88 86 85 82 82 81 83 91 97 97 96 92 88 83 72 314 287 282 281 282 284 283 284 289 290 294 300 304 305 312 321 330 336 342 350 356 357 357 356 351 346
23 25 24 24 24 26 28 30 30 30 32 34 34 33 34 36 36 36 35 32 27 24 25 27 28 27 25 25 31 39 45 50 57 68 80 86 86 85 86 88 88 87 86 85 85 90 94 96 93 86 81 79 75 65 46 8 339 320 306 296 288 283 283 285 289 298 304 310 312 316 323 334 354 7 7 6 7 6 4 3 2 1 358 353 350
21 23 23 23 24 26 27 27 27 27 29 29 27 26 26 27 31 34 35 35 33 31 30 31 31 30 28 27 29 36 44 51 56 61 68 72 73 73 74 77 79 83 88 93 101 110 110 106 104 100 91 68 13 334 295 277 272 267 264 259 254 256 264 270 277 288 297 306 332 70 93 88 69 52 38 26 19 13 5 1 357 356 356 355 353
16 20 22 24 28 32 33 29 26 26 27 26 24 23 23 24 27 31 33 34 36 36 35 36 36 36 36 36 35 39 46 53 57 59 62 67 73 78 87 98 107 114 118 117 110 112 115 112 115 127 148 222 241 234 227 228 228 224 221 219 218 220 227 226 207 176 131 113 107 101 91 78 64 53 42 29 20 12 5 1 359 358 359 0 1
15 18 20 26 33 37 38 36 34 30 28 27 27 26 26 26 28 30 31 32 33 34 36 37 39 40 45 50 54 56 56 59 65 70 74 80 89 99 111 123 126 125 127 131 89 128 146 153 169 204 233 244 234 223 214 208 200 190 182 170 157 148 137 120 109 105 101 97 90 81 73 64 55 47 37 27 22 16 12 10 8 7 7 7 8
15 17 17 22 30 34 35 37 38 36 31 29 28 27 27 28 27 27 27 27 25 25 27 31 35 37 41 52 64 70 70 69 73 80 85 93 105 117 127 136 140 136 138 192 268 245 227 259 284 277 270 262 236 206 183 164 148 131 123 120 117 114 108 101 98 95 89 83 75 67 61 55 47 41 37 32 28 23 19 19 18 18 20 21 20
14 16 15 14 19 26 30 33 35 35 32 28 26 26 26 26 23 23 24 23 20 16 15 18 25 29 34 43 55 63 68 73 77 83 89 95 107 122 136 156 170 167 165 200 231 252 271 282 283 271 257 237 188 154 139 130 123 116 113 111 110 106 102 98 95 90 83 77 72 66 60 53 49 46 42 38 34 30 31 33 34 33 32 29 25
19 17 14 9 9 14 20 25 27 29 29 27 25 25 27 24 22 22 23 21 19 15 12 11 13 16 22 35 47 51 54 61 70 82 97 109 124 141 160 224 238 226 219 230 251 278 287 276 259 240 215 181 155 141 133 128 123 117 112 107 104 101 99 96 93 89 85 82 77 70 62 56 53 50 46 44 44 45 46 46 46 45 40 35 31
23 18 13 11 10 8 10 16 22 24 24 23 22 21 22 22 20 20 21 20 19 17 15 14 12 9 11 23 36 39 38 35 27 19 350 293 276 272 276 277 269 262 258 264 278 286 277 248 213 184 162 149 142 136 130 123 117 112 109 106 104 103 102 101 100 97 93 86 77 69 64 60 57 55 54 54 53 53 53 49 47 46 43 41 40
23 16 10 9 11 10 6 11 22 25 21 18 18 17 18 20 18 16 15 16 16 17 18 19 18 14 14 19 19 14 8 0 347 334 322 311 306 303 296 282 270 263 264 269 275 268 231 182 158 146 141 137 134 131 126 119 113 109 107 106 106 107 106 105 105 101 93 84 77 71 66 65 64 65 66 66 62 57 52 46 44 45 46 44 43
13 8 2 359 5 11 10 14 25 27 21 17 16 16 18 19 17 13 10 10 12 13 17 21 21 15 9 8 5 358 350 343 333 322 316 315 312 308 297 271 249 246 251 248 231 192 161 146 136 132 132 131 129 124 120 115 112 110 109 108 110 111 110 109 106 100 93 85 78 73 71 73 75 74 72 71 68 60 54 49 44 44 47 45 42
0 360 355 350 355 6 11 14 21 25 26 21 16 15 16 15 12 9 6 6 7 8 13 21 23 16 6 358 352 346 338 330 321 311 307 312 315 314 297 241 216 215 213 191 163 146 138 132 129 128 128 128 125 122 118 116 115 115 115 114 113 112 112 111 109 105 101 94 83 76 75 77 79 76 73 71 67 61 58 53 46 44 47 45 38
358 360 357 351 349 355 357 355 6 21 28 24 17 14 12 8 6 4 2 1 2 4 6 13 19 15 8 0 351 342 332 322 318 316 311 313 313 282 220 194 171 157 157 148 137 133 132 129 127 128 129 128 126 124 122 120 118 116 114 112 112 112 113 113 113 112 111 105 94 86 81 78 75 73 68 63 60 59 59 55 47 41 40 39 34
0 358 358 355 352 352 348 336 341 6 23 23 18 15 11 6 4 1 358 357 0 1 1 6 13 11 9 7 3 358 353 347 344 348 348 351 5 35 178 163 144 134 138 137 133 133 134 132 131 131 131 129 129 127 126 126 123 119 115 113 112 113 114 115 118 121 118 110 101 93 85 79 74 68 58 53 53 57 58 53 43 34 29 24 21
357 354 355 356 357 0 0 345 329 345 9 12 10 11 12 10 6 1 357 356 358 359 359 5 10 9 9 13 21 27 35 48 68 82 87 91 84 83 106 132 139 140 142 138 134 138 143 142 139 138 134 132 130 129 131 133 131 127 124 119 116 118 121 120 123 124 118 108 101 93 84 76 70 63 54 49 50 54 55 47 38 33 32 28 23
349 351 355 359 358 360 3 356 342 340 347 349 352 360 8 10 8 3 357 355 356 358 0 5 9 14 19 23 27 35 45 53 61 68 73 83 90 93 108 129 140 144 145 138 136 143 150 149 146 145 142 136 131 129 131 134 134 133 131 125 121 127 132 127 120 117 113 109 104 95 84 73 66 59 52 49 48 50 48 38 31 34 39 38 32
342 349 358 3 357 344 340 341 343 345 345 340 340 348 360 3 2 0 358 357 358 1 359 356 2 17 25 24 22 27 41 53 58 59 62 71 80 86 100 122 136 145 147 141 134 136 140 142 147 150 148 143 137 131 131 134 136 137 138 134 128 128 130 124 115 111 108 105 98 91 84 75 62 50 45 46 45 43 35 25 23 30 38 36 31
340 349 358 2 356 344 331 325 327 333 339 342 341 342 349 353 354 357 1 2 3 6 7 2 3 11 17 19 23 29 38 51 60 60 57 62 70 74 80 97 118 135 142 140 135 133 134 142 151 153 152 150 147 141 138 139 142 144 144 140 132 123 118 118 114 106 99 96 89 82 77 64 35 22 27 32 30 26 24 20 20 22 24 25 26
326 335 343 348 351 352 349 342 335 330 335 345 346 337 333 343 351 359 4 5 7 15 23 18 11 13 13 15 24 33 25 25 42 50 50 53 62 70 75 82 95 116 133 138 142 144 148 156 162 166 171 174 171 165 163 162 159 155 147 136 131 126 118 114 112 104 96 93 80 56 32 5 349 345 346 348 351 350 352 358 14 19 13 13 22
311 311 323 333 342 349 356 1 360 352 351 357 354 339 329 337 354 2 5 5 10 23 26 10 2 7 8 8 19 32 18 357 360 11 20 30 43 58 75 83 88 101 129 153 165 169 175 182 187 193 202 207 205 201 195 185 173 160 146 135 135 134 124 116 114 111 100 84 41 14 7 358 349 340 336 336 338 336 331 325 331 19 5 3 14
312 297 302 318 332 337 341 348 354 355 358 2 359 347 334 329 341 357 4 6 12 21 19 6 2 2 353 355 15 25 11 357 351 342 334 358 26 38 56 74 74 77 93 140 186 191 193 203 211 218 222 222 219 213 201 188 174 164 155 148 145 143 137 130 127 117 87 35 7 358 354 349 345 338 332 332 335 336 333 325 290 253 310 345 4
318 302 300 315 326 329 330 332 336 342 350 356 357 355 345 328 331 351 3 5 9 18 18 9 5 354 338 335 351 354 342 336 347 349 345 51 56 40 42 50 49 47 49 49 112 192 198 210 220 227 233 228 219 211 201 191 182 171 161 157 155 153 150 145 131 93 23 359 352 347 344 345 344 339 335 337 342 343 343 338 309 227 218 249 20
318 307 308 319 325 327 327 327 327 328 333 340 347 354 354 338 327 338 352 355 1 12 13 9 12 9 358 357 0 352 339 335 350 357 6 93 68 37 37 39 36 38 44 38 14 277 235 241 246 247 238 222 211 208 202 190 179 167 161 160 163 165 164 163 173 335 338 337 334 334 337 339 338 336 337 341 343 343 346 355 34 159 166 149 60